KG5EO Weather Reports


Display with metric or nautical units.
time (UTC)temp
F
wind
direction
speed
MPH
gust
MPH
rain 1hr
in
rain 24hr
in
rain mn
in
humidity
%
barometer
mb
20260508015617 89 220 2.0 3.0 0.00 0.00 0.00 12 40.8
20260508015115 91 212 0.0 3.0 0.00 0.00 0.00 12 40.8
20260508014615 91 176 0.0 5.0 0.00 0.00 0.00 11 40.8
20260508014116 91 218 0.0 5.0 0.00 0.00 0.00 11 40.8
20260508013614 92 224 1.0 4.0 0.00 0.00 0.00 11 40.8
20260508013114 92 214 1.0 4.0 0.00 0.00 0.00 10 40.8
20260508012616 93 219 0.0 3.0 0.00 0.00 0.00 10 40.8
20260508012114 94 224 2.0 3.0 0.00 0.00 0.00 10 40.8
20260508011614 95 217 1.0 1.0 0.00 0.00 0.00 9 40.8
20260508011115 94 48 0.0 1.0 0.00 0.00 0.00 8 40.8
20260508010613 94 47 0.0 2.0 0.00 0.00 0.00 7 40.8
20260508010113 94 20 0.0 3.0 0.00 0.00 0.00 8 40.8
20260508005613 95 358 0.0 3.0 0.00 0.00 0.00 8 40.8
20260508005113 96 210 0.0 2.0 0.00 0.00 0.00 8 40.8
20260508004613 95 238 0.0 3.0 0.00 0.00 0.00 8 40.8
20260508004113 95 336 0.0 3.0 0.00 0.00 0.00 8 40.8
20260508003613 95 54 1.0 4.0 0.00 0.00 0.00 8 40.8
20260508003114 95 288 0.0 4.0 0.00 0.00 0.00 6 40.8
20260508002612 95 249 0.0 3.0 0.00 0.00 0.00 8 40.8
20260508002113 94 4 1.0 3.0 0.00 0.00 0.00 8 40.8
20260508001612 94 108 0.0 4.0 0.00 0.00 0.00 6 40.8
20260508001112 94 6 0.0 6.0 0.00 0.00 0.00 7 40.8
20260508000612 94 346 2.0 6.0 0.00 0.00 0.00 6 40.8
20260508000112 94 248 0.0 3.0 0.00 0.00 0.00 9 40.8
20260507235611 94 266 0.0 6.0 0.00 0.00 0.00 8 40.8
20260507235111 94 153 0.0 6.0 0.00 0.00 0.00 7 40.8
20260507234611 95 106 6.0 6.0 0.00 0.00 0.00 7 40.8
20260507234111 95 67 1.0 3.0 0.00 0.00 0.00 7 40.8
20260507233611 95 243 0.0 8.0 0.00 0.00 0.00 9 40.8
20260507233111 95 10 0.0 8.0 0.00 0.00 0.00 7 40.8
20260507232612 95 287 0.0 3.0 0.00 0.00 0.00 7 40.8
20260507232111 95 228 1.0 3.0 0.00 0.00 0.00 10 40.8
20260507231610 95 238 2.0 4.0 0.00 0.00 0.00 9 40.8
20260507231112 95 229 0.0 5.0 0.00 0.00 0.00 8 40.8
20260507230610 95 162 1.0 5.0 0.00 0.00 0.00 9 40.8
20260507230111 95 224 0.0 4.0 0.00 0.00 0.00 12 40.8
20260507225610 94 175 0.0 4.0 0.00 0.00 0.00 8 40.9
20260507225110 94 185 3.0 3.0 0.00 0.00 0.00 9 40.9
20260507224610 94 142 0.0 2.0 0.00 0.00 0.00 11 40.9
20260507224109 95 35 0.0 5.0 0.00 0.00 0.00 8 40.9
20260507223610 95 141 1.0 5.0 0.00 0.00 0.00 8 40.9
20260507223109 95 327 1.0 6.0 0.00 0.00 0.00 8 40.9
20260507222609 94 274 3.0 6.0 0.00 0.00 0.00 8 40.9
20260507222108 94 359 4.0 13.0 0.00 0.00 0.00 9 40.9
20260507221610 94 357 2.0 13.0 0.00 0.00 0.00 8 40.9
20260507221108 94 12 5.0 6.0 0.00 0.00 0.00 8 40.9
20260507220609 95 20 4.0 10.0 0.00 0.00 0.00 9 40.9
20260507220110 95 55 3.0 10.0 0.00 0.00 0.00 8 40.9
20260507215608 95 59 1.0 5.0 0.00 0.00 0.00 11 40.9
20260507215108 95 221 0.0 2.0 0.00 0.00 0.00 10 40.9
20260507214610 94 197 0.0 2.0 0.00 0.00 0.00 14 40.9
20260507214108 94 209 1.0 5.0 0.00 0.00 0.00 12 40.9
20260507213609 94 347 0.0 5.0 0.00 0.00 0.00 9 40.9
20260507213109 94 316 0.0 3.0 0.00 0.00 0.00 10 40.9
20260507212607 93 289 2.0 5.0 0.00 0.00 0.00 10 40.9
20260507212107 93 163 0.0 5.0 0.00 0.00 0.00 12 40.9
20260507211611 92 104 2.0 6.0 0.00 0.00 0.00 11 40.9
20260507211107 92 83 4.0 6.0 0.00 0.00 0.00 11 40.9
20260507210607 92 139 3.0 6.0 0.00 0.00 0.00 14 40.9
20260507210108 93 90 3.0 9.0 0.00 0.00 0.00 11 40.9
20260507205607 93 81 0.0 9.0 0.00 0.00 0.00 12 40.9
20260507205106 92 217 0.0 5.0 0.00 0.00 0.00 13 40.9
20260507204608 93 119 5.0 5.0 0.00 0.00 0.00 12 40.9
20260507204107 92 211 0.0 3.0 0.00 0.00 0.00 18 40.9
20260507203605 93 179 0.0 3.0 0.00 0.00 0.00 15 40.9
20260507203107 93 114 1.0 5.0 0.00 0.00 0.00 15 40.9
20260507202606 93 357 2.0 5.0 0.00 0.00 0.00 13 40.9
20260507202105 92 294 4.0 6.0 0.00 0.00 0.00 13 40.9
20260507201609 92 153 0.0 6.0 0.00 0.00 0.00 12 40.9
20260507201105 92 290 2.0 4.0 0.00 0.00 0.00 12 40.9
20260507200605 92 238 0.0 7.0 0.00 0.00 0.00 11 40.9
20260507200106 92 39 1.0 7.0 0.00 0.00 0.00 12 40.9
20260507195605 92 205 0.0 5.0 0.00 0.00 0.00 13 40.9
20260507195105 92 254 0.0 6.0 0.00 0.00 0.00 11 40.9
20260507194608 91 21 1.0 6.0 0.00 0.00 0.00 13 41.0
20260507194104 92 42 3.0 5.0 0.00 0.00 0.00 14 41.0
20260507193604 92 37 1.0 3.0 0.00 0.00 0.00 13 41.0
20260507193106 91 219 1.0 5.0 0.00 0.00 0.00 12 41.0
20260507192603 91 84 1.0 5.0 0.00 0.00 0.00 12 41.0
20260507192104 91 158 0.0 4.0 0.00 0.00 0.00 17 41.0
20260507191605 90 299 0.0 4.0 0.00 0.00 0.00 14 41.0
20260507191103 89 356 4.0 4.0 0.00 0.00 0.00 16 41.0
20260507190603 90 50 2.0 4.0 0.00 0.00 0.00 15 41.0
20260507190105 89 238 0.0 3.0 0.00 0.00 0.00 16 41.0
20260507185604 89 271 1.0 5.0 0.00 0.00 0.00 14 41.0
20260507185102 88 18 0.0 7.0 0.00 0.00 0.00 17 41.0
20260507184602 89 18 4.0 7.0 0.00 0.00 0.00 16 41.0
20260507184102 88 347 2.0 7.0 0.00 0.00 0.00 19 41.0
20260507183603 89 84 4.0 6.0 0.00 0.00 0.00 22 41.0
20260507183102 88 170 0.0 4.0 0.00 0.00 0.00 20 41.0
20260507182602 88 158 0.0 6.0 0.00 0.00 0.00 20 41.0
20260507182102 87 316 0.0 6.0 0.00 0.00 0.00 16 41.0
20260507181601 88 290 0.0 5.0 0.00 0.00 0.00 17 41.0
20260507181101 86 70 1.0 5.0 0.00 0.00 0.00 19 41.0
20260507180601 87 37 4.0 5.0 0.00 0.00 0.00 18 41.0
20260507180101 87 63 0.0 5.0 0.00 0.00 0.00 15 41.0
20260507175601 87 291 3.0 4.0 0.00 0.00 0.00 17 41.0
20260507175101 86 353 2.0 3.0 0.00 0.00 0.00 17 41.0
20260507174600 86 290 0.0 5.0 0.00 0.00 0.00 18 41.0
20260507174101 86 349 2.0 6.0 0.00 0.00 0.00 20 41.0
20260507173600 86 143 3.0 6.0 0.00 0.00 0.00 18 41.0
20260507173100 85 48 0.0 2.0 0.00 0.00 0.00 20 41.0
20260507172600 84 238 0.0 5.0 0.00 0.00 0.00 21 41.0
20260507172100 83 231 0.0 5.0 0.00 0.00 0.00 20 41.0
20260507171600 84 86 4.0 5.0 0.00 0.00 0.00 21 41.0
20260507171100 84 63 0.0 4.0 0.00 0.00 0.00 22 41.0
20260507170559 84 306 0.0 4.0 0.00 0.00 0.00 21 41.0
20260507170100 83 341 1.0 4.0 0.00 0.00 0.00 22 41.0
20260507165559 83 357 1.0 4.0 0.00 0.00 0.00 24 41.0
20260507165059 82 109 0.0 5.0 0.00 0.00 0.00 22 41.0
20260507164558 82 3 2.0 5.0 0.00 0.00 0.00 22 41.0
20260507164058 82 57 2.0 5.0 0.00 0.00 0.00 22 41.0
20260507163601 81 338 3.0 5.0 0.00 0.00 0.00 24 41.0
20260507163059 80 15 2.0 6.0 0.00 0.00 0.00 24 41.0
20260507162559 80 354 2.0 6.0 0.00 0.00 0.00 23 41.0
20260507162058 80 8 5.0 7.0 0.00 0.00 0.00 22 41.0
20260507161558 80 13 4.0 7.0 0.00 0.00 0.00 24 41.0
20260507161058 80 36 3.0 9.0 0.00 0.00 0.00 24 41.0
20260507160558 79 18 1.0 9.0 0.00 0.00 0.00 25 41.0
20260507160057 79 356 1.0 8.0 0.00 0.00 0.00 26 41.1
20260507155557 79 349 2.0 8.0 0.00 0.00 0.00 25 41.1
20260507155058 78 356 2.0 5.0 0.00 0.00 0.00 26 41.1
20260507154557 77 4 0.0 5.0 0.00 0.00 0.00 28 41.1
20260507154057 77 278 0.0 4.0 0.00 0.00 0.00 27 41.1
20260507153556 76 281 0.0 2.0 0.00 0.00 0.00 28 41.1
20260507153101 76 278 0.0 1.0 0.00 0.00 0.00 29 41.1
20260507152558 75 167 0.0 0.0 0.00 0.00 0.00 29 41.1
20260507152057 74 179 0.0 0.0 0.00 0.00 0.00 31 41.1
20260507151556 74 179 0.0 1.0 0.00 0.00 0.00 33 41.1
20260507151057 73 179 0.0 1.0 0.00 0.00 0.00 33 41.1
20260507150556 72 226 0.0 2.0 0.00 0.00 0.00 35 41.1
20260507150126 71 278 0.0 2.0 0.00 0.00 0.00 37 41.1
20260507145555 71 293 1.0 1.0 0.00 0.00 0.00 36 41.1
20260507145055 70 205 0.0 1.0 0.00 0.00 0.00 36 41.1
20260507144555 69 219 0.0 1.0 0.00 0.00 0.00 38 41.1
20260507144055 69 219 0.0 1.0 0.00 0.00 0.00 37 41.1
20260507143555 69 217 0.0 1.0 0.00 0.00 0.00 35 41.1
20260507143056 69 233 0.0 1.0 0.00 0.00 0.00 40 41.1
20260507142555 69 166 0.0 3.0 0.00 0.00 0.00 35 41.1
20260507142055 70 171 0.0 3.0 0.00 0.00 0.00 34 41.1
20260507141556 69 163 0.0 0.0 0.00 0.00 0.00 36 41.1
20260507141054 69 163 0.0 0.0 0.00 0.00 0.00 41 41.1
20260507140554 69 64 0.0 0.0 0.00 0.00 0.00 41 41.1
20260507140125 68 64 0.0 0.0 0.00 0.00 0.00 39 41.1
20260507135556 66 64 0.0 0.0 0.00 0.00 0.00 37 41.1
20260507135055 65 64 0.0 0.0 0.00 0.00 0.00 43 41.1
20260507134554 64 64 0.0 0.0 0.00 0.00 0.00 45 41.1
20260507134053 62 64 0.0 0.0 0.00 0.00 0.00 48 41.1
20260507133623 60 64 0.0 0.0 0.00 0.00 0.00 48 41.0
20260507133053 59 64 0.0 0.0 0.00 0.00 0.00 49 41.0
20260507132553 58 64 0.0 0.0 0.00 0.00 0.00 49 41.0
20260507132052 58 64 0.0 0.0 0.00 0.00 0.00 48 41.1
20260507131552 58 64 0.0 1.0 0.00 0.00 0.00 49 41.0
20260507131122 58 64 0.0 1.0 0.00 0.00 0.00 49 41.0
20260507130552 57 64 0.0 1.0 0.00 0.00 0.00 49 41.0
20260507130122 57 64 0.0 1.0 0.00 0.00 0.00 50 41.0
20260507125622 57 83 0.0 1.0 0.00 0.00 0.00 49 41.0
20260507125052 57 100 0.0 1.0 0.00 0.00 0.00 50 41.0
20260507124552 56 152 0.0 0.0 0.00 0.00 0.00 51 41.0
20260507124053 56 152 0.0 0.0 0.00 0.00 0.00 52 41.0
20260507123621 56 152 0.0 0.0 0.00 0.00 0.00 53 41.0
20260507123052 56 152 0.0 0.0 0.00 0.00 0.00 53 41.0
20260507122621 56 152 0.0 0.0 0.00 0.00 0.00 52 41.0
20260507122121 56 152 0.0 0.0 0.00 0.00 0.00 52 41.0
20260507121551 57 152 0.0 0.0 0.00 0.00 0.00 52 41.0
20260507121120 57 152 0.0 0.0 0.00 0.00 0.00 51 41.0
20260507120551 57 152 0.0 0.0 0.00 0.00 0.00 50 41.0
20260507120120 57 152 0.0 0.0 0.00 0.00 0.00 51 41.0
20260507115551 58 152 0.0 0.0 0.00 0.00 0.00 49 41.0
20260507115052 58 152 0.0 0.0 0.00 0.00 0.00 49 41.0
20260507114620 58 152 0.0 0.0 0.00 0.00 0.00 48 41.0
20260507114121 58 152 0.0 0.0 0.00 0.00 0.00 47 41.0
20260507113619 58 152 0.0 0.0 0.00 0.00 0.00 46 41.0
20260507113119 58 152 0.0 0.0 0.00 0.00 0.00 46 41.0
20260507112619 58 152 0.0 0.0 0.00 0.00 0.00 47 41.0
20260507112121 59 152 0.0 0.0 0.00 0.00 0.00 46 41.1
20260507111619 59 152 0.0 0.0 0.00 0.00 0.00 45 41.1
20260507111119 60 152 0.0 0.0 0.00 0.00 0.00 44 41.0
20260507110620 60 152 0.0 1.0 0.00 0.00 0.00 44 41.0
20260507110118 60 152 0.0 1.0 0.00 0.00 0.00 46 41.0
20260507105618 59 153 1.0 1.0 0.00 0.00 0.00 45 41.0
20260507105120 60 175 0.0 1.0 0.00 0.00 0.00 45 41.0
20260507104618 60 175 0.0 0.0 0.00 0.00 0.00 44 41.0
20260507104118 60 175 0.0 0.0 0.00 0.00 0.00 43 41.0
20260507103619 60 175 0.0 1.0 0.00 0.00 0.00 42 41.0
20260507103119 60 179 0.0 1.0 0.00 0.00 0.00 43 41.0
20260507102618 60 278 0.0 0.0 0.00 0.00 0.00 45 41.0
20260507102121 60 279 0.0 0.0 0.00 0.00 0.00 44 41.1
20260507101618 60 279 0.0 0.0 0.00 0.00 0.00 42 41.0
20260507101117 61 279 0.0 0.0 0.00 0.00 0.00 42 41.0
20260507100619 61 279 0.0 0.0 0.00 0.00 0.00 41 41.0
20260507100117 61 279 0.0 0.0 0.00 0.00 0.00 41 41.0
20260507095617 62 279 0.0 0.0 0.00 0.00 0.00 40 41.0
20260507095119 62 279 0.0 0.0 0.00 0.00 0.00 39 41.0
20260507094616 63 279 0.0 0.0 0.00 0.00 0.00 37 41.0
20260507094117 63 279 0.0 0.0 0.00 0.00 0.00 37 41.0
20260507093618 63 279 0.0 0.0 0.00 0.00 0.00 36 41.0
20260507093117 64 279 0.0 1.0 0.00 0.00 0.00 37 41.0
20260507092616 63 279 0.0 1.0 0.00 0.00 0.00 37 41.0
20260507092117 64 278 0.0 0.0 0.00 0.00 0.00 37 41.1
20260507091615 64 278 0.0 0.0 0.00 0.00 0.00 35 41.1
20260507091115 64 278 0.0 0.0 0.00 0.00 0.00 36 41.1
20260507090615 63 278 0.0 0.0 0.00 0.00 0.00 35 41.1
20260507090115 64 278 0.0 0.0 0.00 0.00 0.00 33 41.1
20260507085615 64 278 0.0 0.0 0.00 0.00 0.00 32 41.1
20260507085114 64 278 0.0 0.0 0.00 0.00 0.00 34 41.1
20260507084614 65 278 0.0 0.0 0.00 0.00 0.00 31 41.1
20260507084115 65 278 0.0 0.0 0.00 0.00 0.00 32 41.1
20260507083614 66 278 0.0 0.0 0.00 0.00 0.00 35 41.1
20260507083114 66 278 0.0 0.0 0.00 0.00 0.00 32 41.1
20260507082614 67 278 0.0 0.0 0.00 0.00 0.00 30 41.1
20260507082115 68 278 0.0 0.0 0.00 0.00 0.00 34 41.1
20260507081613 69 278 0.0 0.0 0.00 0.00 0.00 28 41.1
20260507081113 69 278 0.0 0.0 0.00 0.00 0.00 27 41.1
20260507080614 70 278 0.0 1.0 0.00 0.00 0.00 26 41.1
20260507080113 70 280 0.0 1.0 0.00 0.00 0.00 26 41.1
20260507075613 70 290 0.0 1.0 0.00 0.00 0.00 27 41.1
20260507075113 70 272 0.0 2.0 0.00 0.00 0.00 29 41.1
20260507074613 71 272 0.0 2.0 0.00 0.00 0.00 28 41.1
20260507074112 71 270 0.0 2.0 0.00 0.00 0.00 26 41.1
20260507073612 71 269 0.0 1.0 0.00 0.00 0.00 27 41.1
20260507073112 71 269 0.0 1.0 0.00 0.00 0.00 26 41.1
20260507072612 72 274 0.0 2.0 0.00 0.00 0.00 25 41.1
20260507072112 72 279 0.0 2.0 0.00 0.00 0.00 24 41.1
20260507071611 72 269 2.0 2.0 0.00 0.00 0.00 25 41.1
20260507071112 72 251 0.0 2.0 0.00 0.00 0.00 25 41.1
20260507070611 72 257 0.0 2.0 0.00 0.00 0.00 24 41.1
20260507070112 72 278 0.0 3.0 0.00 0.00 0.00 25 41.1
20260507065612 72 268 0.0 3.0 0.00 0.00 0.00 24 41.1
20260507065111 72 280 0.0 3.0 0.00 0.00 0.00 25 41.1
20260507064611 73 268 0.0 3.0 0.00 0.00 0.00 24 41.1
20260507064111 73 271 0.0 2.0 0.00 0.00 0.00 24 41.1
20260507063610 73 266 0.0 2.0 0.00 0.00 0.00 23 41.1
20260507063110 73 278 1.0 4.0 0.00 0.00 0.00 23 41.1
20260507062610 73 264 0.0 4.0 0.00 0.00 0.00 23 41.1
20260507062111 73 264 0.0 4.0 0.00 0.00 0.00 23 41.1
20260507061611 73 289 0.0 3.0 0.00 0.00 0.00 23 41.1
20260507061110 73 274 0.0 3.0 0.00 0.00 0.00 23 41.1
20260507060611 73 275 1.0 3.0 0.00 0.00 0.00 23 41.1
20260507060110 73 266 0.0 3.0 0.00 0.00 0.00 23 41.1
20260507055609 74 278 0.0 3.0 0.00 0.00 0.00 22 41.1
20260507055109 74 280 0.0 4.0 0.00 0.00 0.00 22 41.1
20260507054609 74 238 1.0 4.0 0.00 0.00 0.00 22 41.1
20260507054109 74 261 2.0 3.0 0.00 0.00 0.00 23 41.1
20260507053611 74 274 3.0 3.0 0.00 0.00 0.00 23 41.1
20260507053109 74 271 0.0 5.0 0.00 0.00 0.00 23 41.1
20260507052608 74 269 1.0 5.0 0.00 0.00 0.00 22 41.1
20260507052110 74 269 0.0 2.0 0.00 0.00 0.00 22 41.1
20260507051608 74 288 0.0 3.0 0.00 0.00 0.00 22 41.1
20260507051109 74 274 1.0 3.0 0.00 0.00 0.00 22 41.1
20260507050610 74 279 0.0 3.0 0.00 0.00 0.00 22 41.1
20260507050109 74 244 0.0 3.0 0.00 0.00 0.00 22 41.1
20260507045608 74 248 0.0 3.0 0.00 0.00 0.00 22 41.1
20260507045111 75 284 0.0 3.0 0.00 0.00 0.00 22 41.1
20260507044607 75 257 0.0 5.0 0.00 0.00 0.00 22 41.1
20260507044107 75 243 2.0 5.0 0.00 0.00 0.00 21 41.1
20260507043609 75 247 0.0 4.0 0.00 0.00 0.00 22 41.1
20260507043107 75 259 2.0 3.0 0.00 0.00 0.00 23 41.1
20260507042609 75 252 0.0 2.0 0.00 0.00 0.00 22 41.1
20260507042108 75 288 0.0 2.0 0.00 0.00 0.00 22 41.1
20260507041606 75 266 0.0 3.0 0.00 0.00 0.00 23 41.1
20260507041106 75 271 0.0 3.0 0.00 0.00 0.00 22 41.1
20260507040609 75 273 0.0 1.0 0.00 0.00 0.00 22 41.1
20260507040106 75 270 0.0 1.0 0.00 0.00 0.00 23 41.1
20260507035606 75 281 0.0 1.0 0.00 0.00 0.00 23 41.0
20260507035108 75 275 0.0 1.0 0.00 0.00 0.00 23 41.0
20260507034605 74 259 0.0 1.0 0.00 0.00 0.00 24 41.0
20260507034105 74 264 0.0 1.0 0.00 0.00 0.00 24 41.0
20260507033608 73 265 0.0 0.0 0.00 0.00 0.00 25 41.0
20260507033105 73 265 0.0 0.0 0.00 0.00 0.00 26 41.0
20260507032605 73 265 0.0 0.0 0.00 0.00 0.00 26 41.0
20260507032107 74 265 0.0 0.0 0.00 0.00 0.00 25 41.0
20260507031606 74 265 0.0 0.0 0.00 0.00 0.00 24 41.0
20260507031104 75 265 0.0 0.0 0.00 0.00 0.00 24 41.0
20260507030606 75 265 0.0 0.0 0.00 0.00 0.00 23 41.0
20260507030104 76 265 0.0 0.0 0.00 0.00 0.00 23 41.0
20260507025604 77 265 0.0 0.0 0.00 0.00 0.00 22 41.0
20260507025106 78 265 0.0 0.0 0.00 0.00 0.00 22 41.0
20260507024604 78 265 0.0 0.0 0.00 0.00 0.00 21 41.0
20260507024104 78 265 0.0 0.0 0.00 0.00 0.00 21 41.0
20260507023603 78 265 0.0 0.0 0.00 0.00 0.00 21 41.0
20260507023103 79 262 0.0 0.0 0.00 0.00 0.00 22 41.0
20260507022605 79 262 0.0 2.0 0.00 0.00 0.00 21 41.0
20260507022105 80 262 0.0 2.0 0.00 0.00 0.00 20 41.0
20260507021605 80 280 0.0 2.0 0.00 0.00 0.00 20 41.0
20260507021105 81 255 1.0 3.0 0.00 0.00 0.00 20 41.0
20260507020603 81 289 0.0 3.0 0.00 0.00 0.00 20 41.0